Location: Unspecified
(41.5000°N, 0.0000°E)
Time: 13:00:58
(UTC+00:00)

Envisat - Visible Passes

Search period start: 23 October 2019 00:00
Search period end: 02 November 2019 00:00
Orbit: 764 x 766 km, 98.1° (Epoch: 23 October)

Date Brightness Start Highest point End Pass type
(mag) Time Alt. Az. Time Alt. Az. Time Alt. Az.
23 Oct 5.1 18:59:14 10° SSW 19:03:31 27° W 19:07:51 10° NW visible
24 Oct 6.6 05:30:47 10° ENE 05:32:27 11° E 05:34:08 10° ESE visible
24 Oct 3.6 18:21:35 10° S 18:26:35 61° WSW 18:31:38 10° NNW visible
25 Oct 3.0 17:44:52 10° SSE 17:49:51 61° ENE 17:54:52 10° N visible
25 Oct 5.9 19:26:16 10° SW 19:29:16 16° W 19:32:17 10° NW visible
26 Oct 6.0 05:54:27 10° NE 05:58:15 21° E 06:02:02 10° SE visible
26 Oct 4.7 18:47:35 10° SSW 18:52:11 34° W 18:56:49 10° NNW visible
27 Oct 3.2 18:10:14 10° S 18:15:19 78° WSW 18:20:25 10° NNW visible
28 Oct 3.2 17:33:46 10° SE 17:38:37 48° ENE 17:43:30 10° N visible
28 Oct 5.6 19:14:13 10° SW 19:17:53 20° W 19:21:34 10° NW visible
29 Oct 6.1 05:43:42 10° NE 05:46:53 16° E 05:50:02 10° SE visible
29 Oct 4.2 18:36:03 10° S 18:40:52 44° W 18:45:43 10° NNW visible
30 Oct 2.9 17:58:58 10° SSE 18:04:02 84° ENE 18:09:09 10° NNW visible
30 Oct 6.2 19:42:26 10° WSW 19:43:41 11° W 19:44:57 10° WNW visible
31 Oct 3.5 17:22:45 10° SE 17:27:25 38° ENE 17:32:07 10° N visible
31 Oct 5.2 19:02:23 10° SSW 19:06:31 25° W 19:10:41 10° NW visible
01 Nov 6.3 05:33:15 10° ENE 05:35:29 13° E 05:37:42 10° ESE visible
01 Nov 3.7 18:24:36 10° S 18:29:34 56° W 18:34:34 10° NNW visible
